Weather History for Cullman, AL

Change the Weather History Date:

Tuesday, April 2, 2013

  Actual Average (KHSV) Record (KHSV)
Temperature  
Mean Temperature 48 °F 58 °F  
Max Temperature 56 °F 70 °F 86 °F (1963)
Min Temperature 41 °F 46 °F 25 °F (1924)
Degree Days  
Heating Degree Days 16 8  
Month to date heating degree days 16  
Since 1 July heating degree days 2836  
Cooling Degree Days 0 1  
Month to date cooling degree days 2  
Year to date cooling degree days 16  
Moisture  
Dew Point 30 °F    
Average Humidity 50    
Maximum Humidity 71    
Minimum Humidity 34    
Precipitation  
Precipitation 0.00 in 0.15 in 2.47 in (1920)
Month to date precipitation 0.31  
Year to date precipitation 15.25  
Snow  
Snow 0.00 in - - ()
Month to date snowfall  
Since 1 July snowfall  
Snow Depth -    
Sea Level Pressure  
Sea Level Pressure 30.19 in    
Wind  
Wind Speed 6 mph (North)    
Max Wind Speed 13 mph    
Max Gust Speed 18 mph    
Visibility 10 miles    
Events      
T = Trace of Precipitation, MM = Missing Value Source: NWS Daily Summary

Daily Weather History Graph

Daily Weather History Graph

Search for Another Location

Airport:

Trip Planner

Search our weather history database for the weather conditions in past years. The results will help you decide how hot, cold, wet, or windy it might be!

Date:

Astronomy

Apr. 02, 2013 Rise Set
Actual Time 6:32 AM CDT 7:09 PM CDT
Civil Twilight 6:07 AM CDT 7:34 PM CDT
Nautical Twilight 5:37 AM CDT 8:04 PM CDT
Astronomical Twilight 5:07 AM CDT 8:34 PM CDT
Moon 1:03 AM CDT (4/2) 11:33 AM CDT (4/2)
Length of Visible Light 13h 26m
Length of Day
12h 36m
Waning Gibbous, 55% of the Moon is Illuminated
Apr 2
Waning Gibbous
Apr 2
Last Quarter
Apr 10
New
Apr 18
First Quarter
Apr 25
Full

Hourly Weather History & Observations

Time (CDT) Temp. Windchill Dew Point Humidity Pressure Visibility Wind Dir Wind Speed Gust Speed Precip Events Conditions
12:15 AM 51.4 °F - 35.6 °F 55% 30.11 in 10.0 mi Calm Calm - N/A   Clear
12:35 AM 50.0 °F - 36.5 °F 60% 30.11 in 10.0 mi Calm Calm - N/A   Clear
12:55 AM 49.5 °F - 36.5 °F 61% 30.11 in 10.0 mi North 4.6 mph - N/A   Clear
1:15 AM 49.6 °F - 36.9 °F 61% 30.11 in 10.0 mi North 6.9 mph - N/A   Clear
1:35 AM 48.9 °F - 37.0 °F 64% 30.11 in 10.0 mi North 6.9 mph - N/A   Clear
1:55 AM 48.0 °F - 37.0 °F 66% 30.11 in 10.0 mi North 5.8 mph - N/A   Clear
2:15 AM 47.3 °F - 37.2 °F 68% 30.12 in 10.0 mi North 5.8 mph - N/A   Clear
2:35 AM 47.3 °F - 37.0 °F 68% 30.11 in 10.0 mi North 5.8 mph - N/A   Clear
2:55 AM 47.1 °F - 36.7 °F 67% 30.12 in 10.0 mi North 9.2 mph - N/A   Clear
3:15 AM 46.4 °F 43.5 °F 36.0 °F 67% 30.12 in 10.0 mi North 5.8 mph - N/A   Clear
3:35 AM 45.7 °F 41.0 °F 36.0 °F 69% 30.13 in 10.0 mi North 9.2 mph - N/A   Clear
3:55 AM 45.3 °F 41.1 °F 36.0 °F 70% 30.14 in 10.0 mi NNW 8.1 mph - N/A   Clear
4:15 AM 44.4 °F 40.5 °F 35.6 °F 71% 30.15 in 10.0 mi North 6.9 mph - N/A   Clear
4:35 AM 43.9 °F 40.5 °F 34.7 °F 70% 30.17 in 10.0 mi NNW 5.8 mph - N/A   Clear
4:55 AM 43.3 °F 40.7 °F 32.9 °F 67% 30.16 in 10.0 mi North 4.6 mph - N/A   Clear
5:15 AM 42.3 °F 40.5 °F 32.2 °F 67% 30.17 in 10.0 mi North 3.5 mph - N/A   Clear
5:35 AM 41.7 °F 39.8 °F 31.6 °F 67% 30.19 in 10.0 mi NNW 3.5 mph - N/A   Clear
5:55 AM 41.2 °F - 31.3 °F 68% 30.19 in 10.0 mi Calm Calm - N/A   Clear
6:15 AM 41.0 °F 39.0 °F 31.1 °F 68% 30.19 in 10.0 mi North 3.5 mph - N/A   Clear
6:35 AM 41.0 °F 38.0 °F 30.9 °F 67% 30.19 in 10.0 mi North 4.6 mph - N/A   Clear
6:55 AM 41.2 °F 38.2 °F 30.9 °F 67% 30.20 in 10.0 mi North 4.6 mph - N/A   Clear
7:15 AM 41.4 °F 38.4 °F 30.4 °F 65% 30.21 in 10.0 mi North 4.6 mph - N/A   Clear
7:35 AM 41.9 °F 38.2 °F 30.4 °F 64% 30.21 in 10.0 mi North 5.8 mph - N/A   Clear
7:55 AM 43.0 °F 38.8 °F 30.2 °F 61% 30.20 in 10.0 mi NNE 6.9 mph - N/A   Clear
8:15 AM 44.4 °F 40.0 °F 29.8 °F 57% 30.21 in 10.0 mi NNE 8.1 mph - N/A   Clear
8:35 AM 45.3 °F 40.1 °F 28.6 °F 52% 30.22 in 10.0 mi NNE 10.4 mph - N/A   Clear
8:55 AM 46.4 °F 40.7 °F 27.7 °F 48% 30.22 in 10.0 mi North 12.7 mph - N/A   Clear
9:35 AM 48.6 °F - 26.6 °F 42% 30.23 in 10.0 mi North 9.2 mph - N/A   Clear
9:55 AM 49.5 °F - 27.1 °F 42% 30.23 in 10.0 mi NNE 10.4 mph 18.4 mph N/A   Scattered Clouds
10:15 AM 50.0 °F - 27.3 °F 41% 30.23 in 10.0 mi NE 10.4 mph - N/A   Clear
10:35 AM 50.9 °F - 27.7 °F 41% 30.23 in 10.0 mi NE 10.4 mph - N/A   Scattered Clouds
10:55 AM 51.6 °F - 27.7 °F 40% 30.23 in 10.0 mi NE 5.8 mph - N/A   Clear
11:15 AM 52.9 °F - 27.3 °F 37% 30.24 in 10.0 mi North 10.4 mph - N/A   Clear
11:35 AM 54.0 °F - 27.0 °F 35% 30.23 in 10.0 mi NE 8.1 mph - N/A   Clear
11:55 AM 54.1 °F - 26.2 °F 34% 30.23 in 10.0 mi NNW 9.2 mph - N/A   Scattered Clouds
12:15 PM 54.5 °F - 26.2 °F 34% 30.22 in 10.0 mi North 9.2 mph - N/A   Scattered Clouds
12:35 PM 54.5 °F - 26.6 °F 34% 30.22 in 10.0 mi NNE 4.6 mph - N/A   Clear
12:55 PM 54.7 °F - 27.0 °F 34% 30.22 in 10.0 mi NE 9.2 mph - N/A   Clear
1:15 PM 55.6 °F - 27.1 °F 34% 30.21 in 10.0 mi NNW 6.9 mph - N/A   Clear
1:35 PM 56.1 °F - 27.9 °F 34% 30.20 in 10.0 mi NNW 5.8 mph - N/A   Clear
1:55 PM 55.9 °F - 28.0 °F 34% 30.20 in 10.0 mi NNE 4.6 mph - N/A   Clear
2:15 PM 56.1 °F - 28.4 °F 35% 30.19 in 10.0 mi NNW 5.8 mph - N/A   Clear
2:35 PM 56.5 °F - 28.8 °F 35% 30.19 in 10.0 mi NNW 4.6 mph - N/A   Clear
2:55 PM 56.8 °F - 29.5 °F 35% 30.19 in 10.0 mi North 8.1 mph - N/A   Clear
3:15 PM 56.3 °F - 28.9 °F 35% 30.19 in 10.0 mi North 6.9 mph - N/A   Clear
3:35 PM 55.9 °F - 28.8 °F 35% 30.17 in 10.0 mi North 6.9 mph - N/A   Scattered Clouds
3:55 PM 56.5 °F - 28.4 °F 34% 30.17 in 10.0 mi North 8.1 mph - N/A   Clear
4:15 PM 56.5 °F - 28.8 °F 35% 30.17 in 10.0 mi North 6.9 mph - N/A   Scattered Clouds
4:35 PM 56.1 °F - 29.7 °F 36% 30.17 in 10.0 mi North 8.1 mph - N/A   Overcast
4:55 PM 55.2 °F - 29.3 °F 37% 30.18 in 10.0 mi NNW 8.1 mph - N/A   Overcast
5:15 PM 53.8 °F - 27.9 °F 37% 30.19 in 10.0 mi NNW 10.4 mph - N/A   Overcast
5:35 PM 52.2 °F - 25.7 °F 36% 30.19 in 10.0 mi North 8.1 mph - N/A   Overcast
5:55 PM 51.4 °F - 24.6 °F 35% 30.19 in 10.0 mi North 6.9 mph - N/A   Overcast
6:15 PM 50.7 °F - 27.1 °F 40% 30.18 in 10.0 mi North 5.8 mph - N/A   Mostly Cloudy
6:35 PM 50.0 °F - 28.0 °F 43% 30.18 in 10.0 mi North 6.9 mph - N/A   Scattered Clouds
6:55 PM 49.5 °F - 27.0 °F 42% 30.18 in 10.0 mi North 6.9 mph - N/A   Scattered Clouds
7:15 PM 48.7 °F - 27.0 °F 43% 30.18 in 10.0 mi North 3.5 mph - N/A   Clear
7:35 PM 48.4 °F - 27.7 °F 45% 30.18 in 10.0 mi North 5.8 mph - N/A   Scattered Clouds
7:55 PM 47.7 °F - 28.2 °F 47% 30.18 in 10.0 mi North 6.9 mph - N/A   Scattered Clouds
8:15 PM 47.1 °F - 27.9 °F 47% 30.18 in 10.0 mi North 4.6 mph - N/A   Scattered Clouds
8:35 PM 46.4 °F 45.2 °F 27.9 °F 48% 30.20 in 10.0 mi North 3.5 mph - N/A   Clear
8:55 PM 46.0 °F 44.8 °F 28.2 °F 50% 30.20 in 10.0 mi North 3.5 mph - N/A   Clear
9:15 PM 45.5 °F 44.2 °F 28.4 °F 51% 30.21 in 10.0 mi North 3.5 mph - N/A   Clear
9:35 PM 45.3 °F 43.0 °F 28.0 °F 51% 30.21 in 10.0 mi North 4.6 mph - N/A   Clear
9:55 PM 44.8 °F 41.0 °F 28.4 °F 53% 30.21 in 10.0 mi North 6.9 mph - N/A   Scattered Clouds
10:15 PM 44.8 °F 43.3 °F 27.5 °F 51% 30.22 in 10.0 mi North 3.5 mph - N/A   Scattered Clouds
10:35 PM 44.8 °F 41.0 °F 27.3 °F 50% 30.22 in 10.0 mi North 6.9 mph - N/A   Scattered Clouds
10:55 PM 44.6 °F 40.7 °F 27.5 °F 51% 30.21 in 10.0 mi North 6.9 mph - N/A   Scattered Clouds
11:15 PM 44.6 °F 41.4 °F 27.5 °F 51% 30.21 in 10.0 mi North 5.8 mph - N/A   Scattered Clouds
11:35 PM 44.6 °F 40.7 °F 27.5 °F 51% 30.21 in 10.0 mi North 6.9 mph - N/A   Mostly Cloudy
11:55 PM 44.6 °F 39.7 °F 27.9 °F 52% 30.20 in 10.0 mi North 9.2 mph - N/A   Mostly Cloudy